Weather History for EGPE - July, 2013

Change the Weather History Date:

Thursday, July 25, 2013

  Actual Average Record
Temperature  
Mean Temperature 62 °F -  
Max Temperature 68 °F 63 °F 82 °F (2006)
Min Temperature 57 °F 50 °F 44 °F (2008)
Degree Days  
Heating Degree Days 2    
Growing Degree Days 12 (Base 50)    
Moisture  
Dew Point 60 °F    
Average Humidity 94    
Maximum Humidity 100    
Minimum Humidity 82    
Precipitation  
Precipitation 0.00 in - - ()
Sea Level Pressure  
Sea Level Pressure 29.85 in    
Wind  
Wind Speed 3 mph ()    
Max Wind Speed 10 mph    
Max Gust Speed -    
Visibility 4.6 miles    
Events Fog , Rain    
Averages and records for this station are not official NWS values.
T = Trace of Precipitation, MM = Missing Value Source: Averaged Metar Reports

Daily Weather History Graph

Daily Weather History Graph

Search for Another Location

Airport or City:

Trip Planner

Search our weather history database for the weather conditions in past years. The results will help you decide how hot, cold, wet, or windy it might be!

Date:

Astronomy

Jul. 25, 2013 Rise Set
Actual Time 4:58 AM BST 9:45 PM BST
Civil Twilight 4:02 AM BST 10:41 PM BST
Nautical Twilight 2:16 AM BST 12:22 AM BST
Astronomical Twilight Sun does not rise Sun does not rise
Moon 10:14 PM BST 9:07 AM BST
Length of Visible Light 18h 39m
Length of Day
16h 47m
Waning Gibbous, 90% of the Moon is Illuminated
Jul 25
Waning Gibbous
Jul 29
Last Quarter
Aug 6
New
Aug 14
First Quarter
Aug 21
Full

Hourly Weather History & Observations

Time (BST) Temp. Dew Point Humidity Pressure Visibility Wind Dir Wind Speed Gust Speed Precip Events Conditions
12:20 AM 62.6 °F 57.2 °F 82% 29.86 in 6.2 mi Calm Calm - N/A   Unknown
12:50 AM 62.6 °F 59.0 °F 88% 29.86 in 6.2 mi Variable 2.3 mph - N/A   Unknown
1:20 AM 60.8 °F 57.2 °F 88% 29.89 in 6.2 mi Calm Calm - N/A   Unknown
1:50 AM 60.8 °F 57.2 °F 88% 29.89 in 6.2 mi Calm Calm - N/A   Unknown
2:20 AM 60.8 °F 57.2 °F 88% 29.89 in 6.2 mi East 4.6 mph - N/A   Partly Cloudy
2:50 AM 60.8 °F 59.0 °F 94% 29.86 in 6.2 mi ENE 4.6 mph - N/A   Partly Cloudy
3:20 AM 59.0 °F 59.0 °F 100% 29.86 in 6.2 mi ENE 3.5 mph - N/A   Partly Cloudy
3:50 AM 59.0 °F 57.2 °F 94% 29.86 in 6.2 mi Calm Calm - N/A   Partly Cloudy
4:20 AM 59.0 °F 57.2 °F 94% 29.89 in 6.2 mi ENE 3.5 mph - N/A   Partly Cloudy
4:50 AM 59.0 °F 59.0 °F 100% 29.86 in 6.2 mi ENE 3.5 mph - N/A   Partly Cloudy
5:20 AM 59.0 °F 57.2 °F 94% 29.86 in 6.2 mi Calm Calm - N/A Fog Shallow Fog
5:50 AM 57.2 °F 55.4 °F 94% 29.86 in 6.2 mi Calm Calm - N/A   Partly Cloudy
6:20 AM 57.2 °F 57.2 °F 100% 29.86 in 6.2 mi ENE 3.5 mph - N/A   Partly Cloudy
6:50 AM 59.0 °F 57.2 °F 94% 29.86 in 6.2 mi South 3.5 mph - N/A   Partly Cloudy
7:20 AM 62.6 °F 60.8 °F 94% 29.86 in 6.2 mi Calm Calm - N/A   Partly Cloudy
7:50 AM 62.6 °F 60.8 °F 94% 29.86 in 5.6 mi NE 4.6 mph - N/A   Mostly Cloudy
8:20 AM 62.6 °F 60.8 °F 94% 29.86 in 5.6 mi NNE 5.8 mph - N/A   Mostly Cloudy
8:50 AM 64.4 °F 60.8 °F 88% 29.86 in 5.6 mi NNE 5.8 mph - N/A   Mostly Cloudy
9:20 AM 64.4 °F 62.6 °F 94% 29.86 in 5.6 mi Variable 3.5 mph - N/A   Scattered Clouds
9:50 AM 68.0 °F 62.6 °F 83% 29.86 in 6.2 mi North 5.8 mph - N/A   Scattered Clouds
10:20 AM 66.2 °F 60.8 °F 83% 29.83 in 6.2 mi NNE 5.8 mph - N/A   Scattered Clouds
10:50 AM 66.2 °F 60.8 °F 83% 29.83 in 6.2 mi NE 5.8 mph - N/A   Scattered Clouds
11:20 AM 66.2 °F 62.6 °F 88% 29.83 in 6.2 mi NNE 6.9 mph - N/A   Scattered Clouds
11:50 AM 66.2 °F 60.8 °F 83% 29.83 in 5.6 mi NE 6.9 mph - N/A   Scattered Clouds
12:20 PM 66.2 °F 60.8 °F 83% 29.83 in 3.7 mi NNE 10.4 mph - N/A   Scattered Clouds
12:50 PM 64.4 °F 60.8 °F 88% 29.86 in 3.7 mi NNE 10.4 mph - N/A   Mostly Cloudy
1:20 PM 62.6 °F 60.8 °F 94% 29.83 in 3.7 mi NNE 9.2 mph - N/A   Mostly Cloudy
1:50 PM 60.8 °F 59.0 °F 94% 29.86 in 2.5 mi North 6.9 mph - N/A Rain Light Rain Showers
2:20 PM 60.8 °F 59.0 °F 94% 29.86 in 0.7 mi NE 4.6 mph - N/A Rain Heavy Rain Showers
2:50 PM 60.8 °F 59.0 °F 94% 29.83 in 3.7 mi Variable 3.5 mph - N/A   Mostly Cloudy
3:20 PM 60.8 °F 60.8 °F 100% 29.83 in 3.7 mi North 4.6 mph - N/A   Mostly Cloudy
3:50 PM 62.6 °F 60.8 °F 94% 29.83 in 3.7 mi NE 5.8 mph - N/A   Mostly Cloudy
4:20 PM 62.6 °F 60.8 °F 94% 29.83 in 3.7 mi NE 5.8 mph - N/A   Mostly Cloudy
4:50 PM 60.8 °F 60.8 °F 100% 29.83 in 3.7 mi NE 6.9 mph - N/A   Mostly Cloudy
5:20 PM 60.8 °F 60.8 °F 100% 29.83 in 4.3 mi NE 5.8 mph - N/A   Mostly Cloudy
5:50 PM 60.8 °F 60.8 °F 100% 29.83 in 4.3 mi NE 5.8 mph - N/A   Mostly Cloudy
6:20 PM 60.8 °F 60.8 °F 100% 29.83 in 3.1 mi NE 5.8 mph - N/A   Mostly Cloudy
6:50 PM 60.8 °F 60.8 °F 100% 29.83 in 2.5 mi NE 3.5 mph - N/A Rain Light Rain
7:20 PM 60.8 °F 60.8 °F 100% 29.83 in 2.5 mi ENE 4.6 mph - N/A Rain Light Drizzle
7:50 PM 60.8 °F 60.8 °F 100% 29.83 in 2.8 mi NE 4.6 mph - N/A   Light Drizzle
8:20 PM 60.8 °F 60.8 °F 100% 29.83 in 2.8 mi Variable 3.5 mph - N/A   Light Drizzle
8:50 PM 60.8 °F 60.8 °F 100% 29.83 in 2.8 mi Calm Calm - N/A Rain Light Rain
9:20 PM 60.8 °F 60.8 °F 100% 29.83 in 2.5 mi ENE 3.5 mph - N/A Rain Light Rain
9:50 PM 60.8 °F 59.0 °F 94% 29.83 in 2.5 mi Calm Calm - N/A Rain Light Rain
10:20 PM 60.8 °F 59.0 °F 94% 29.83 in - Calm Calm - N/A   Overcast
10:50 PM 59.0 °F 59.0 °F 100% 29.83 in 1.2 mi SW 2.3 mph - N/A   Mostly Cloudy
11:20 PM 59.0 °F 59.0 °F 100% 29.83 in 0.9 mi Calm Calm - N/A   Overcast
11:50 PM 59.0 °F 59.0 °F 100% 29.83 in - Variable 2.3 mph - N/A   Overcast